SHT2V EGCC-EGLL

Flight info

Callsign SHT2V
Flight time 0h 35m
Altitude 19000
Route LISTO L612 HON
Aircraft A320/M-SDE3FGHIRWY/LB1

Departure

Time 2026-05-04 09:26
Airport Manchester Airport (EGCC)

Arrival

Time 2026-05-04 10:02
Airport London Heathrow Airport (EGLL)
Time Latitude Longitude Altitude Speed Heading
2026-05-04 09:01 53.36917 -2.28740 255 ft 0 kts 135°
2026-05-04 09:03 53.36918 -2.28740 255 ft 0 kts 135°
2026-05-04 09:14 53.36933 -2.28763 255 ft 4 kts 151°
2026-05-04 09:15 53.36957 -2.28776 255 ft 4 kts 191°
2026-05-04 09:15 53.36973 -2.28763 255 ft 1 kts 225°
2026-05-04 09:15 53.36975 -2.28760 255 ft 0 kts 225°
2026-05-04 09:18 53.36956 -2.28792 255 ft 7 kts 225°
2026-05-04 09:19 53.36916 -2.28858 255 ft 9 kts 225°
2026-05-04 09:19 53.36864 -2.28944 255 ft 12 kts 225°
2026-05-04 09:19 53.36804 -2.29022 255 ft 10 kts 203°
2026-05-04 09:19 53.36734 -2.29023 255 ft 11 kts 147°
2026-05-04 09:20 53.36674 -2.28921 255 ft 12 kts 137°
2026-05-04 09:20 53.36609 -2.28857 255 ft 11 kts 137°
2026-05-04 09:20 53.36570 -2.28752 255 ft 11 kts 124°
2026-05-04 09:20 53.36514 -2.28649 255 ft 13 kts 135°
2026-05-04 09:21 53.36443 -2.28530 255 ft 16 kts 135°
2026-05-04 09:21 53.36351 -2.28468 255 ft 14 kts 160°
2026-05-04 09:21 53.36273 -2.28352 255 ft 16 kts 135°
2026-05-04 09:21 53.36189 -2.28206 255 ft 19 kts 135°
2026-05-04 09:22 53.36091 -2.28046 255 ft 20 kts 139°
2026-05-04 09:22 53.36000 -2.27913 255 ft 18 kts 139°
2026-05-04 09:22 53.35887 -2.27849 255 ft 18 kts 182°
2026-05-04 09:22 53.35742 -2.27874 247 ft 24 kts 184°
2026-05-04 09:23 53.35613 -2.27932 240 ft 13 kts 221°
2026-05-04 09:23 53.35540 -2.28071 234 ft 19 kts 227°
2026-05-04 09:23 53.35439 -2.28156 238 ft 17 kts 191°
2026-05-04 09:23 53.35317 -2.28197 235 ft 20 kts 205°
2026-05-04 09:25 53.34739 -2.28808 223 ft 25 kts 51°
2026-05-04 09:25 53.34992 -2.28283 232 ft 90 kts 51°
2026-05-04 09:26 53.35497 -2.27239 250 ft 137 kts 52°
2026-05-04 09:26 53.36126 -2.25905 653 ft 144 kts 51°
2026-05-04 09:26 53.36736 -2.24654 1336 ft 134 kts 51°
2026-05-04 09:26 53.37313 -2.23486 1854 ft 130 kts 56°
2026-05-04 09:27 53.37621 -2.21973 2056 ft 150 kts 87°
2026-05-04 09:27 53.37399 -2.20159 2215 ft 172 kts 116°
2026-05-04 09:27 53.36549 -2.18636 2361 ft 191 kts 147°
2026-05-04 09:27 53.35361 -2.17449 2530 ft 206 kts 153°
2026-05-04 09:28 53.33923 -2.16831 2692 ft 223 kts 177°
2026-05-04 09:28 53.32304 -2.17035 2845 ft 244 kts 185°
2026-05-04 09:28 53.30545 -2.17332 3111 ft 260 kts 185°
2026-05-04 09:28 53.29339 -2.17530 3430 ft 265 kts 185°
2026-05-04 09:29 53.27495 -2.17825 4002 ft 267 kts 185°
2026-05-04 09:29 53.25637 -2.18120 4573 ft 270 kts 185°
2026-05-04 09:29 53.23156 -2.18515 5325 ft 272 kts 185°
2026-05-04 09:29 53.21261 -2.18811 5853 ft 274 kts 185°
2026-05-04 09:30 53.19973 -2.19012 6206 ft 275 kts 185°
2026-05-04 09:30 53.18059 -2.19311 6743 ft 277 kts 186°
2026-05-04 09:30 53.16157 -2.19611 7569 ft 279 kts 186°
2026-05-04 09:30 53.14183 -2.19523 8441 ft 283 kts 170°
2026-05-04 09:31 53.12326 -2.18553 9280 ft 287 kts 158°
2026-05-04 09:31 53.10478 -2.17262 10108 ft 290 kts 158°
2026-05-04 09:31 53.08554 -2.15921 10448 ft 311 kts 158°
2026-05-04 09:31 53.06482 -2.14482 10680 ft 332 kts 158°
2026-05-04 09:32 53.04317 -2.12982 11231 ft 341 kts 158°
2026-05-04 09:32 53.02116 -2.11460 11907 ft 345 kts 158°
2026-05-04 09:34 52.86082 -2.00450 16454 ft 365 kts 159°
2026-05-04 09:34 52.83754 -1.98864 17031 ft 369 kts 159°
2026-05-04 09:34 52.81368 -1.97237 17605 ft 372 kts 159°
2026-05-04 09:34 52.78969 -1.95600 18264 ft 374 kts 159°
2026-05-04 09:35 52.76552 -1.93948 18805 ft 377 kts 159°
2026-05-04 09:35 52.74123 -1.92288 19001 ft 378 kts 159°
2026-05-04 09:35 52.71665 -1.90615 19061 ft 390 kts 159°
2026-05-04 09:35 52.69101 -1.88874 19063 ft 404 kts 159°
2026-05-04 09:37 52.50668 -1.76431 19058 ft 409 kts 159°
2026-05-04 09:37 52.48040 -1.74666 19058 ft 408 kts 159°
2026-05-04 09:38 52.45404 -1.72897 19058 ft 408 kts 159°
2026-05-04 09:38 52.42777 -1.71138 19054 ft 408 kts 159°
2026-05-04 09:38 52.40181 -1.69400 19058 ft 408 kts 159°
2026-05-04 09:38 52.37522 -1.67590 19053 ft 408 kts 156°
2026-05-04 09:39 52.35081 -1.65324 19056 ft 410 kts 147°
2026-05-04 09:39 52.32854 -1.62396 19055 ft 411 kts 140°
2026-05-04 09:39 52.30697 -1.59326 19052 ft 412 kts 140°
2026-05-04 09:39 52.28528 -1.56263 19054 ft 412 kts 141°
2026-05-04 09:40 52.26358 -1.53213 19052 ft 412 kts 141°
2026-05-04 09:40 52.24188 -1.50170 19054 ft 411 kts 141°
2026-05-04 09:40 52.22016 -1.47122 19045 ft 411 kts 141°
2026-05-04 09:40 52.19847 -1.44082 19046 ft 411 kts 141°
2026-05-04 09:41 52.17674 -1.41046 19047 ft 412 kts 141°
2026-05-04 09:42 52.02940 -1.20541 19039 ft 368 kts 141°
2026-05-04 09:43 52.01024 -1.17895 18929 ft 354 kts 141°
2026-05-04 09:43 51.99178 -1.15346 18746 ft 344 kts 141°
2026-05-04 09:43 51.97374 -1.12861 18430 ft 333 kts 141°
2026-05-04 09:43 51.95659 -1.10501 17943 ft 322 kts 141°
2026-05-04 09:44 51.93974 -1.08184 17433 ft 313 kts 141°
2026-05-04 09:44 51.92332 -1.05925 16931 ft 306 kts 141°
2026-05-04 09:44 51.90726 -1.03716 16429 ft 300 kts 141°
2026-05-04 09:46 51.82307 -0.86432 13060 ft 274 kts 118°
2026-05-04 09:46 51.81465 -0.83696 12560 ft 271 kts 118°
2026-05-04 09:46 51.80628 -0.80981 12063 ft 269 kts 118°
2026-05-04 09:47 51.79800 -0.78289 11582 ft 266 kts 118°
2026-05-04 09:47 51.78979 -0.75614 11096 ft 264 kts 118°
2026-05-04 09:49 51.73119 -0.56609 7123 ft 263 kts 117°
2026-05-04 09:49 51.72234 -0.54161 7055 ft 244 kts 128°
2026-05-04 09:49 51.71203 -0.51983 7068 ft 244 kts 128°
2026-05-04 09:51 51.65099 -0.38936 6749 ft 241 kts 128°
2026-05-04 09:51 51.64107 -0.36820 6622 ft 232 kts 127°
2026-05-04 09:51 51.63138 -0.34757 6502 ft 230 kts 128°
2026-05-04 09:51 51.62195 -0.32747 6376 ft 221 kts 128°
2026-05-04 09:52 51.61274 -0.30788 6193 ft 217 kts 128°
2026-05-04 09:52 51.60362 -0.28867 5855 ft 215 kts 128°
2026-05-04 09:52 51.59456 -0.26972 5505 ft 212 kts 128°
2026-05-04 09:52 51.58567 -0.25114 5143 ft 208 kts 127°
2026-05-04 09:53 51.57699 -0.23302 4811 ft 205 kts 127°
2026-05-04 09:53 51.56862 -0.21556 4694 ft 188 kts 128°
2026-05-04 09:53 51.56106 -0.19970 4601 ft 172 kts 127°
2026-05-04 09:53 51.55405 -0.18490 4378 ft 159 kts 127°
2026-05-04 09:54 51.54762 -0.17130 4164 ft 149 kts 127°
2026-05-04 09:54 51.54138 -0.15815 3955 ft 147 kts 127°
2026-05-04 09:54 51.53521 -0.14514 3752 ft 146 kts 127°
2026-05-04 09:54 51.52765 -0.13492 3539 ft 140 kts 153°
2026-05-04 09:55 51.51842 -0.13158 3467 ft 138 kts 179°
2026-05-04 09:55 51.50913 -0.13513 3446 ft 140 kts 206°
2026-05-04 09:55 51.50121 -0.14433 3457 ft 141 kts 217°
2026-05-04 09:55 51.49296 -0.15297 3400 ft 143 kts 209°
2026-05-04 09:56 51.48487 -0.16229 3143 ft 144 kts 226°
2026-05-04 09:56 51.47970 -0.17569 2999 ft 142 kts 250°
2026-05-04 09:56 51.47818 -0.19133 2953 ft 142 kts 272°
2026-05-04 09:56 51.47821 -0.20717 2951 ft 143 kts 270°
2026-05-04 09:57 51.47812 -0.22323 2789 ft 146 kts 270°
2026-05-04 09:57 51.47806 -0.23930 2537 ft 142 kts 271°
2026-05-04 09:57 51.47802 -0.25502 2330 ft 140 kts 271°
2026-05-04 09:57 51.47799 -0.27050 2130 ft 140 kts 271°
2026-05-04 09:58 51.47796 -0.28624 1931 ft 139 kts 271°
2026-05-04 09:58 51.47794 -0.30160 1756 ft 138 kts 271°
2026-05-04 09:58 51.47791 -0.31695 1553 ft 137 kts 271°
2026-05-04 10:00 51.47764 -0.42363 237 ft 136 kts 272°
2026-05-04 10:00 51.47759 -0.43882 128 ft 136 kts 272°
2026-05-04 10:02 51.47583 -0.47150 90 ft 18 kts 270°